Location: Boffres
(44.9220°N, 4.7039°E)
Time: 06:31:57
(UTC+00:00)

Daily predictions for brighter satellites

Satellite Brightness Start Highest point End
(mag) Time Altitude Azimuth Time Altitude Azimuth Time Altitude Azimuth
DMSP B5D2-2 4.4 19:10:22 10° NNE 19:15:24 45° E 19:20:25 10° S
IRIDIUM 103 4.4 19:10:51 10° S 19:16:00 64° E 19:21:10 10° N
FREGAT/IRIS 2.3 19:14:08 10° SSE 19:16:43 61° ENE 19:19:20 10° N
Cosmos 1821 Rocket 4.0 19:11:08 10° S 19:17:11 65° E 19:23:24 10° NNE
Ariane Rocket 3.0 19:12:44 10° SSE 19:17:47 81° ENE 19:22:52 10° NNW
Intercosmos 25 3.1 19:15:46 10° N 19:19:21 53° ENE 19:22:27 10° SSE
Cosmos 1805 Rocket 3.7 19:15:52 10° S 19:20:19 89° W 19:24:49 10° N
Cosmos 1812 2.7 19:17:06 10° N 19:20:57 90° WSW 19:24:48 10° S
Cosmos 407 Rocket 3.7 19:17:15 10° SSW 19:22:34 85° WNW 19:27:52 10° NNE
SJ-6B 2.8 19:21:45 10° SSE 19:25:45 79° ENE 19:29:42 10° N
Cosmos 1862 4.0 19:22:41 10° SSW 19:26:41 61° W 19:30:44 10° N
Cosmos 1190 Rocket 4.0 19:21:29 10° SSW 19:26:46 86° ESE 19:32:07 10° NNE
deb Kosmos-1763 3.9 19:24:29 10° SSW 19:28:06 77° ESE 19:31:46 10° NNE
Cosmos 1140 Rocket 3.5 19:23:21 10° SSW 19:28:37 86° ESE 19:33:53 10° NNE
Resurs 1-3 4.0 19:26:42 10° SE 19:30:53 47° ENE 19:35:06 10° N
OBJECT-B 1.2 19:30:18 10° SSE 19:33:28 46° ENE 19:36:39 10° N
Cosmos 1441 Rocket 4.0 19:30:13 10° SSW 19:33:54 55° WNW 19:37:36 10° N
Cosmos 2084 Rocket 4.3 19:30:33 10° S 19:34:05 27° ESE 19:37:42 10° ENE
IRIDIUM 106 4.4 19:29:03 10° S 19:34:16 89° W 19:39:32 10° N
Cosmos 1633 Rocket 3.2 19:32:17 10° S 19:36:34 55° E 19:40:54 10° NNE
Cosmos 1184 Rocket 3.3 19:34:22 10° SSE 19:37:28 39° E 19:40:34 10° NNE
SL-08 RB Rocket 4.3 19:34:07 10° S 19:38:42 62° W 19:43:21 10° NNW
Cosmos 921 Rocket 3.4 19:37:32 10° N 19:41:34 43° ENE 19:45:04 13° SE
Cosmos 2239 Rocket 4.5 19:36:20 10° S 19:42:28 86° E 19:48:40 10° N
Cosmos 2123 Rocket 4.1 19:36:49 10° N 19:43:01 62° E 19:49:13 10° SSE
Meteor 1-27 Rocket 4.0 19:42:22 10° NNW 19:48:19 79° W 19:54:14 10° S
Cosmos 1605 Rocket 4.3 19:45:44 10° SSE 19:51:28 45° E 19:57:14 10° NNE
Okean 1 4.4 19:50:28 10° NNE 19:53:59 28° ENE 19:56:09 18° ESE
Cosmos 1707 Rocket 4.0 19:50:00 10° NNW 19:54:17 64° W 19:58:33 10° S
CZ-2C R/B 2.8 19:49:52 10° N 19:55:03 77° WNW 20:00:19 10° SSW
NOSS 3-2 (A) 3.3 19:49:36 10° SW 19:55:16 87° SE 20:01:46 10° NE
Cosmos 192 4.3 19:52:02 10° NNW 19:56:59 87° WSW 20:01:41 11° SSE
USA 267 3.9 19:53:16 10° ENE 19:58:58 32° SE 20:04:40 10° S
SL-4 R/B 3.5 19:58:54 10° WNW 20:02:34 32° N 20:06:00 10° NE
SL-16 R/B 2.8 19:57:18 10° NNW 20:02:42 42° ENE 20:06:27 19° ESE
BREEZE-M DEB (TANK) 3.1 20:01:11 10° W 20:03:41 47° N 20:09:23 10° ENE
BREEZE-M DEB (TANK) 4.2 20:01:09 10° WNW 20:04:25 17° WSW 20:06:30 10° SSW
SL-27 R/B 3.4 20:04:28 24° ESE 20:04:57 25° ESE 20:07:43 10° NE
NOSS 3-2 (C) 3.3 20:00:22 10° SSW 20:05:57 66° ESE 20:12:19 10° NE
Cosmos 1470 Rocket 3.5 20:02:03 10° S 20:06:23 63° E 20:10:43 10° NNE
Cosmos 2242 Rocket 4.1 20:02:31 10° N 20:06:42 40° ENE 20:09:08 21° SE
Cosmos 2082 Rocket 3.2 20:05:04 10° SW 20:10:37 51° WNW 20:16:09 10° NNE
BREEZE-M DEB (TANK) 3.4 20:08:40 10° WNW 20:11:15 30° N 20:12:31 15° NE
Meteor 2-20 Rocket 4.5 20:09:31 10° N 20:15:43 87° W 20:21:52 10° S
Meteor 1-4 Rocket 3.9 20:15:02 10° NNW 20:18:14 36° W 20:21:26 10° SSW
ERS-1 Rocket 4.1 20:16:14 20° ESE 20:18:27 27° ENE 20:22:39 10° N
Cosmos 2322 Rocket 2.7 20:14:33 10° NNW 20:20:04 47° ENE 20:23:15 24° ESE
Cosmos 1862 Rocket 3.9 20:17:40 10° NNW 20:22:06 67° W 20:25:59 13° S
Cosmos 1850 Rocket 4.0 20:17:51 10° S 20:23:04 64° ESE 20:28:17 10° NNE
Meteor 1-25 Rocket 4.2 20:19:21 10° S 20:24:55 87° E 20:30:36 10° NNE
Cosmos 1500 4.5 20:25:36 23° E 20:25:36 23° E 20:28:22 10° NE
SPOT 1/Viking Rocket 4.0 20:23:32 25° SE 20:26:14 47° ENE 20:31:15 10° N
Cosmos 841 Rocket 4.2 20:22:40 10° N 20:27:36 40° ENE 20:29:56 26° ESE
USA 32 4.0 20:22:24 10° S 20:27:38 89° W 20:32:53 10° N
Cosmos 2360 Rocket 3.2 20:24:02 10° N 20:29:07 32° NE 20:31:48 22° E
USA 276 2.4 20:26:07 10° WNW 20:29:16 62° NNE 20:30:10 40° E
Terra 3.3 20:27:56 19° E 20:29:22 21° ENE 20:32:56 10° NNE
X-37B 0.6 20:26:44 10° W 20:29:51 60° SSW 20:30:22 50° SSE
Meteor 1-18 Rocket 4.1 20:24:53 10° N 20:30:28 72° ENE 20:33:52 24° SSE
ATLAS 3B R/B 3.0 20:25:08 10° S 20:31:06 38° ESE 20:37:06 10° NE
IGS 5A 3.5 20:29:39 32° SE 20:31:23 60° ENE 20:35:30 10° N
Cosmos 1238 Rocket 2.1 20:30:33 26° SSW 20:32:01 75° W 20:35:03 10° N
USA 234 4.1 20:29:00 12° E 20:34:34 43° NNE 20:40:38 10° NW
Cosmos 468 Rocket 4.0 20:31:22 10° NNW 20:36:42 83° WSW 20:39:43 26° SSE
Cosmos 1980 Rocket 3.6 20:32:53 10° NW 20:37:54 33° WSW 20:42:53 10° SSW
Resurs 01 Rocket 2.3 20:34:56 16° S 20:38:22 52° W 20:42:43 10° NNW
Cosmos 44 3.5 20:33:27 10° NNW 20:38:23 67° NE 20:40:36 33° SE
Iridium 4 Rocket 4.4 20:38:44 22° E 20:38:44 22° E 20:41:50 10° NNE
Lacrosse 5 2.0 20:34:33 10° NW 20:39:36 67° SW 20:41:50 33° SSE
Cosmos 1602 3.8 20:37:46 19° SSW 20:40:27 82° W 20:44:25 10° N
Cosmos 1447 Rocket 4.5 20:34:57 10° N 20:41:19 83° E 20:45:25 23° S
CARTOSAT-1 4.2 20:40:31 33° ESE 20:41:31 38° ENE 20:45:32 10° N
Cosmos 1153 Rocket 4.4 20:36:52 16° S 20:41:55 72° E 20:48:06 10° NNE
GP-B 3.5 20:40:51 10° N 20:45:16 64° W 20:48:37 17° SSW
Cosmos 1933 Rocket 3.8 20:42:59 13° SSW 20:46:57 69° W 20:51:24 10° N
Cosmos 405 Rocket 3.7 20:50:04 12° SSW 20:53:22 45° WNW 20:57:02 10° N
Spot 2 Rocket 3.5 20:51:17 32° S 20:53:45 84° WSW 20:58:53 10° NNW
COSMOS 2428 4.5 20:51:07 10° N 20:55:18 20° NE 20:57:48 16° ENE
Cosmos 1814 Rocket 4.2 20:50:13 10° NNW 20:55:22 55° ENE 20:56:56 40° ESE
Cosmos 1802 Rocket 4.4 20:54:58 34° SE 20:57:04 45° E 21:03:03 10° NNE
Cosmos 1869 Rocket 3.5 20:57:43 50° SE 20:58:35 63° E 21:03:01 10° NNE
Cosmos 1515 3.7 20:55:01 10° NNW 20:58:51 76° W 20:59:36 54° SSW
CENTAUR R/B 2.9 20:53:13 10° SW 20:59:07 66° NW 21:06:12 10° NE
Okean 1-7 2.9 20:56:24 10° N 21:00:43 83° W 21:01:51 48° S
Cosmos 1741 Rocket 4.4 20:56:50 10° SSW 21:02:02 64° WNW 21:07:19 10° NNE
Cosmos 1437 Rocket 3.1 21:02:51 10° NNW 21:06:34 56° W 21:07:19 46° SW
Cosmos 1763 Rocket 4.2 21:05:47 10° NNW 21:10:54 48° WSW 21:13:14 29° SSW
Cosmos 1703 Rocket 4.0 21:06:45 10° NNW 21:11:01 57° W 21:12:20 39° SSW
Cosmos 1570 Rocket 4.0 21:08:05 10° NNW 21:13:27 85° WSW 21:14:58 49° SSE
Cosmos 2333 Rocket 3.4 21:08:32 10° N 21:13:37 31° NE 21:15:19 26° E
ATLAS 5 CENTAUR R/B 3.1 21:11:05 10° NNW 21:13:49 37° NE 21:14:58 32° E
SPOT 5 2.4 21:17:39 71° SE 21:18:02 78° ENE 21:22:29 10° N
Meteor 1-5 Rocket 4.2 21:18:35 40° S 21:20:53 80° E 21:26:49 10° NNE
Cosmos 2208 Rocket 3.9 21:19:41 10° NNW 21:24:57 81° WSW 21:25:57 58° S
Cosmos 1733 Rocket 4.0 21:29:41 35° ENE 21:29:41 35° ENE 21:32:48 10° NNE
Meteor 1-11 Rocket 3.7 21:31:46 59° SE 21:32:37 68° E 21:38:23 10° NNE
Lacrosse 4 Rocket 2.3 21:37:37 39° NE 21:37:37 39° NE 21:40:20 10° NNE
Tsikada Rocket 4.1 21:31:32 10° N 21:37:46 56° ENE 21:38:46 50° ESE
Cosmos 2100 Rocket 4.2 21:36:57 31° SSW 21:39:59 67° W 21:46:08 10° N
USA 267 3.3 21:35:50 10° NE 21:42:24 81° NW 21:48:56 10° WSW
SL-4 R/B 3.2 21:39:23 10° NW 21:42:51 32° N 21:42:58 32° NNE
Meteor 2-4 Rocket 4.2 21:37:43 10° NNW 21:43:05 51° W 21:44:39 39° SW
Cosmos 2219 Rocket 2.8 21:38:09 10° NNW 21:43:35 44° ENE 21:44:23 41° E
Cosmos 540 Rocket 4.0 21:38:38 10° NNW 21:43:36 48° WSW 21:44:28 44° SW
Cosmos 2173 Rocket 4.2 21:41:11 33° SSW 21:43:58 67° W 21:50:04 10° N
SL-16 R/B 3.4 21:41:41 10° NW 21:46:39 32° WSW 21:48:20 27° SW
Cosmos 1242 Rocket 4.0 21:48:40 10° N 21:50:53 34° N 21:50:53 34° N
Cosmos 1725 Rocket 3.9 21:55:18 61° S 21:56:30 87° E 22:02:52 10° N
Meteor 1-23 Rocket 4.2 21:51:02 10° N 21:56:52 73° ENE 21:57:14 70° ESE
ERS-1 Rocket 3.8 21:56:14 37° WSW 21:57:03 40° W 22:01:47 10° NNW
Cosmos 2322 3.6 21:51:23 10° NNW 21:57:04 76° ENE 21:57:25 73° E
Cosmos 1833 4.3 21:58:12 48° SW 21:59:45 73° WNW 22:05:26 10° NNE
SL-08 R/B 4.3 21:59:40 63° SSW 22:00:43 85° W 22:06:53 10° N
Cosmos 1536 3.9 22:03:05 43° NNW 22:03:05 43° NNW 22:05:54 10° N
Cosmos 2346 Rocket 4.5 21:56:28 10° NNW 22:02:30 71° W 22:03:31 59° SSW
Meteor 1-13 Rocket 4.5 21:57:15 10° NNW 22:02:40 57° W 22:03:23 52° SW
Cosmos 2322 Rocket 3.5 21:59:03 10° NW 22:03:52 29° WSW 22:05:03 26° SW
Cosmos 2016 Rocket 4.2 22:02:20 47° SW 22:04:12 70° W 22:10:35 10° N
Cosmos 2221 Rocket 4.3 22:01:34 10° NNW 22:05:37 50° WNW 22:05:37 50° WNW
Cosmos 1378 Rocket 4.4 22:01:33 10° N 22:04:52 44° NNE 22:04:52 44° NNE
Terra 2.4 22:06:49 48° W 22:06:49 48° W 22:11:24 10° NNW
Cosmos 1666 4.3 22:12:27 33° NW 22:12:27 33° NW 22:15:02 10° N
Cosmos 2333 4.1 22:06:11 10° NNW 22:12:00 84° WSW 22:12:06 83° SW
Cosmos 2360 Rocket 2.8 22:07:53 10° NW 22:13:15 44° WSW 22:13:33 44° WSW
USA 234 3.1 22:16:20 68° SE 22:17:15 84° SW 22:23:50 10° NW
ATLAS 3B R/B 3.3 22:15:13 10° WSW 22:21:37 50° NW 22:28:06 10° NNE
Lacrosse 5 4.3 22:20:05 10° W 22:21:01 11° WSW 22:21:01 11° WSW
MOS 1-B Rocket 3.7 22:17:40 10° NNE 22:23:10 83° ENE 22:23:10 83° ENE
Cosmos 2297 Rocket 4.0 22:32:12 19° ENE 22:32:12 19° ENE 22:34:18 10° NE
Cosmos 2233 Rocket 4.0 22:34:08 71° SW 22:34:41 76° W 22:41:02 10° N
Thor Agena Rocket 4.1 22:31:09 10° NNE 22:35:03 51° NE 22:35:03 51° NE
Cosmos 1980 4.4 22:31:28 10° NNW 22:36:53 43° ENE 22:36:58 43° ENE
COSMOS 2428 2.8 22:34:31 10° NNW 22:39:48 74° NW 22:39:48 74° NW
Cosmos 44 Rocket 4.1 22:39:11 10° NW 22:42:56 50° NW 22:42:56 50° NW
Cosmos 2237 Rocket 2.8 22:39:14 10° NNW 22:44:34 46° NE 22:44:34 46° NE
Cosmos 1464 Rocket 4.4 22:46:12 50° ENE 22:46:12 50° ENE 22:51:34 10° NNE
NOSS 0 Rocket 3.9 22:45:40 10° NNW 22:51:50 77° NE 22:51:50 77° NE
Cosmos 1503 Rocket 4.5 22:58:15 60° NNW 22:58:15 60° NNW 23:02:57 10° NNE
Cosmos 2333 Rocket 2.9 22:52:35 10° NW 22:57:19 45° W 22:57:19 45° W
ALOS 2 4.1 23:17:00 34° NNW 23:17:00 34° NNW 23:19:34 10° NNW
Lacrosse 4 Rocket 4.1 23:13:52 14° WNW 23:15:17 16° NW 23:17:54 10° N
Cosmos 2034 Rocket 4.2 23:19:27 64° ENE 23:19:27 64° ENE 23:25:11 10° NNE
Cosmos 1072 Rocket 4.5 23:20:38 75° NNW 23:20:38 75° NNW 23:26:19 10° N
Cosmos 2227 Rocket 3.2 23:22:00 38° ENE 23:22:00 38° ENE 23:25:45 10° NE
Cosmos 2219 Rocket 3.6 23:22:25 10° NW 23:26:05 28° W 23:26:05 28° W
Cosmos 1607 4.1 23:41:00 10° NNW 23:47:26 73° NE 23:47:26 73° NE
